Powrót do katalogu

YAOGAN-36 01A

AktywnyMilitariaVLEO
NORAD 53943·PAYLOAD·🇨🇳 China

Wystrzelony Sep 26, 2022 z Xichang Satellite Launch Center

Loading…

Następne Przeloty (najbliższe 24 godziny)

TLE

ŚwieżeSource: Space-Track

Epoka: Sep 14, 2026, 14:34 UTC

1 53943U 22120A   26257.60730916  .00006854  00000-0  27012-3 0  9993
2 53943  34.9900  81.2429 0004025  69.1714 290.9432 15.24886224220966

Śledź YAOGAN-36 01A w czasie rzeczywistym z AllMySat

Download on the App Store